Main page
METAR-TAF:

METAR-TAF

Airports :

Monte Cimone, Italy

latitude: 44-12N, longitude: 010-42E, elevation: 2165 m

Current weather observation

The report was made 1 hour and 11 minutes ago, at 14:55 UTC
Wind 17 kt from the North/Northeast
Temperature 4°C
Humidity 87%
Pressure 1024 hPa
Visibility 10 km or more
no clouds below 1500 m and no cumulonimbus

METAR: LIVC 261455Z 03017KT CAVOK 04/02 Q1024 RMK SKC MON LIB VAL INVIS VIS MIN 9999

Time: 18:06 (16:06 UTC)


TAF: missing

Weather observations and forecasts of more than 4000 airports (METAR and TAF reports).

The available stations are represented by yellow and red dots on the map.

Hover mouse over dot to see the name of the station.

Then click to see weather observations and forecasts.

To change the map : click on the green buttons with a black cross to zoom in, on the green button with a dash to zoom out, or on the green arrows for adjacent maps.


METAR-TAF: